Flag for Seychelles Weather past 2 weeks in Victoria, Seychelles

Now
82 °F

Warm.


Feels Like: 91 °F
Forecast: 74 / 84 °F
Wind: No wind

Location: National Airport

Current Time: Apr 19, 2015 at 11:49:18 PM

Latest Report: Apr 19, 2015 at 11:00 PM


Visibility: N/A

Pressure: 29.86 "Hg

Humidity: 84%

Dew point: 77 °F

Location of VictoriaLocation

Historic Weather in Victoria — Graph

°F

Victoria temperature yesterday

Maximum temperature yesterday: 90 °F (at 11:00 AM)
Minimum temperature yesterday: 79 °F (at 3:00 AM)
Average temperature yesterday: 84 °F

Past Weeks' High & Low Weather Summary

 TemperatureHumidityPressure
High91 °F (Apr 5, 3:00 PM)94% (Apr 13, 12:00 AM)29.95 "Hg (Apr 13, 12:00 AM)
Low79 °F (Apr 10, 5:00 AM)55% (Apr 18, 4:00 PM)29.71 "Hg (Apr 5, 3:00 AM)
Average85 °F75%29.83 "Hg
* Reported Apr 4 11:00 PM — Apr 19 11:00 PM, Victoria, Weather by CustomWeather, © 2015

Note: Actual official high and low records may vary slightly from our data, if they occured in-between our weather recording intervals... More about our weather records

Advertising

Victoria weather history for previous 24 hours

 ConditionsComfort  
Time TempWeatherWind HumidityBarometerVisibility
11:00 PM
Sun, Apr 19
82 °FWarm.No wind84%29.86 "HgN/A
10:00 PM82 °FWarm.7 mph84%29.89 "HgN/A
9:00 PM84 °FPassing clouds.6 mph79%29.86 "HgN/A
8:00 PM84 °FPassing clouds.6 mph79%29.83 "HgN/A
7:00 PM84 °FPassing clouds.No wind79%29.83 "HgN/A
6:00 PM86 °FScattered clouds.5 mph75%29.80 "HgN/A
5:00 PM86 °FScattered clouds.No wind75%29.80 "HgN/A
4:00 PM84 °FPartly sunny.5 mph79%29.77 "HgN/A
3:00 PM86 °FPartly sunny.6 mph75%29.77 "HgN/A
2:00 PM88 °FPartly sunny.15 mph70%29.77 "HgN/A
1:00 PM88 °FScattered clouds.10 mph75%29.80 "HgN/A
12:00 PM90 °FScattered clouds.8 mph71%29.83 "HgN/A
11:00 AM86 °FScattered clouds.15 mph75%29.86 "HgN/A
10:00 AM90 °FScattered clouds.14 mph67%29.86 "HgN/A
9:00 AM88 °FScattered clouds.5 mph70%29.86 "HgN/A
8:00 AM86 °FScattered clouds.No wind75%29.86 "HgN/A
7:00 AM82 °FPassing clouds.2 mph84%29.83 "HgN/A
6:00 AM82 °FPassing clouds.3 mph84%29.80 "HgN/A
5:00 AM82 °FPassing clouds.7 mph84%29.80 "HgN/A
4:00 AM82 °FPassing clouds.7 mph79%29.77 "HgN/A
3:00 AM82 °FPassing clouds.5 mph79%29.80 "HgN/A
2:00 AM82 °FPassing clouds.5 mph79%29.80 "HgN/A
1:00 AM82 °FPassing clouds.6 mph79%29.83 "HgN/A
12:00 AM81 °FPassing clouds.No wind84%29.83 "HgN/A
11:00 PM
Sat, Apr 18
82 °FPassing clouds.2 mph79%29.83 "HgN/A
Weather by CustomWeather, © 2015

See weather overviewHow to use our weather pages